Flag for U.S.A. Weather past 2 weeks in Knoxville, Tennessee, U.S.A.

Now
26 °F

Clear.


Feels Like: 26 °F
Forecast: 24 / 56 °F
Wind: No wind

Location: McGhee Tyson Airport

Current Time: Mar 29, 2015 at 6:27:08 AM

Latest Report: Mar 29, 2015 at 5:53 AM


Visibility: 10 mi

Pressure: 30.36 "Hg

Humidity: 77%

Dew point: 20 °F

Location of KnoxvilleLocation

Historic Weather in Knoxville — Graph

°F

Knoxville temperature yesterday

Maximum temperature yesterday: 46 °F (at 4:53 PM)
Minimum temperature yesterday: 31 °F (at 7:53 AM)
Average temperature yesterday: 38 °F

Past Weeks' High & Low Weather Summary

 TemperatureHumidityPressure
High77 °F (Mar 25, 3:53 PM)100% (Mar 14, 7:53 PM)30.35 "Hg (Mar 14, 7:53 PM)
Low28 °F (Mar 29, 3:53 AM)20% (Mar 28, 6:53 PM)29.67 "Hg (Mar 26, 5:53 PM)
Average54 °F67%30.06 "Hg
* Reported Mar 14 4:53 AM — Mar 29 4:53 AM, Knoxville, Weather by CustomWeather, © 2015

Note: Actual official high and low records may vary slightly from our data, if they occured in-between our weather recording intervals... More about our weather records

Advertising

Knoxville weather history for previous 24 hours

 ConditionsComfort  
Time TempWeatherWind HumidityBarometerVisibility
4:53 AM
Sun, Mar 29
28 °FClear.5 mph64%30.35 "Hg10 mi
3:53 AM28 °FClear.6 mph58%30.35 "Hg10 mi
2:53 AM31 °FClear.6 mph49%30.35 "Hg10 mi
1:53 AM32 °FClear.3 mph50%30.34 "Hg10 mi
12:53 AM33 °FClear.No wind52%30.34 "Hg10 mi
11:53 PM
Sat, Mar 28
35 °FClear.7 mph40%30.33 "Hg10 mi
10:53 PM37 °FClear.7 mph36%30.30 "Hg10 mi
9:53 PM38 °FClear.8 mph36%30.28 "Hg10 mi
8:53 PM40 °FSunny.8 mph29%30.25 "Hg10 mi
7:53 PM42 °FSunny.10 mph27%30.22 "Hg10 mi
6:53 PM45 °FPassing clouds.5 mph20%30.20 "Hg10 mi
5:53 PM46 °FPassing clouds.8 mph22%30.18 "Hg10 mi
4:53 PM46 °FPassing clouds.8 mph29%30.17 "Hg10 mi
3:53 PM45 °FPassing clouds.6 mph27%30.17 "Hg10 mi
2:53 PM44 °FPassing clouds.12 mph29%30.19 "Hg10 mi
1:53 PM41 °FPassing clouds.5 mph35%30.20 "Hg10 mi
12:53 PM39 °FPassing clouds.8 mph38%30.20 "Hg10 mi
11:53 AM37 °FPassing clouds.5 mph42%30.20 "Hg10 mi
10:53 AM35 °FPassing clouds.6 mph48%30.20 "Hg10 mi
9:53 AM34 °FPassing clouds.12 mph50%30.18 "Hg10 mi
8:53 AM33 °FScattered clouds.10 mph54%30.16 "Hg10 mi
7:53 AM31 °FPassing clouds.9 mph61%30.14 "Hg10 mi
6:53 AM32 °FPassing clouds.7 mph59%30.11 "Hg10 mi
Weather by CustomWeather, © 2015

See weather overviewHow to use our weather pages